Jette Viking Hv77 — 5QEP — position and weather

sailwx.info

Track history (hours):
 
Tides and Currents Weather Stations Pressure Air Temp Water Temp Dewpoint Dewpoint Depression Visibility Wind Speed Wind Dir Waves Ship Positions

Jette Viking Hv77

Last reported at 2014-Jul-23 07:34 UTC. Time now 2014-Jul-23 07:54 UTC.
Position N 57°30' E 010°30'.

Length 16 m.

Type: Fishing. MMSI: 220046000.

Date/timePositionNaut miles runAvg speedWind from/ knotsBaromVisibWave heightAir tempDewpointWater temp
2014-Jul-23 07:34N 57°30' E 010°30'0 0.0
2014-Jul-23 06:33N 57°30' E 010°30'0 0.0
2014-Jul-23 05:27N 57°30' E 010°30'2 2.5
2014-Jul-23 04:33N 57°31' E 010°34'5 4.8
2014-Jul-23 03:33N 57°30' E 010°43'4 4.3
2014-Jul-23 02:33N 57°30' E 010°51'3 2.5
2014-Jul-23 01:33N 57°32' E 010°54'3 2.5
2014-Jul-23 00:33N 57°34' E 010°56'2 2.5
2014-Jul-22 23:33N 57°37' E 010°57'1 0.6
2014-Jul-22 22:32N 57°37' E 010°56'3 2.5
2014-Jul-22 21:31N 57°35' E 010°55'2 2.5
2014-Jul-22 20:33N 57°32' E 010°55'3 2.5
2014-Jul-22 19:33N 57°30' E 010°52'5 5.5
2014-Jul-22 18:33N 57°30' E 010°42'6 6.2
2014-Jul-22 17:34N 57°30' E 010°30'0 0.0
2014-Jul-22 16:33N 57°30' E 010°30'0 0.0
2014-Jul-22 15:34N 57°30' E 010°30'0 0.0
2014-Jul-22 14:33N 57°30' E 010°30'0 0.0
2014-Jul-22 13:33N 57°30' E 010°30'0 0.0
2014-Jul-22 12:34N 57°30' E 010°30'0 0.0
2014-Jul-22 11:33N 57°30' E 010°30'0 0.0
2014-Jul-22 10:33N 57°30' E 010°30'0 0.0
2014-Jul-22 09:33N 57°30' E 010°30'0 0.0
2014-Jul-22 08:33N 57°30' E 010°30'0 0.0
2014-Jul-22 07:34N 57°30' E 010°30'0 0.0
2014-Jul-22 06:33N 57°30' E 010°30'0 0.0
2014-Jul-22 05:33N 57°30' E 010°30'4 4.3
2014-Jul-22 04:33N 57°31' E 010°38'8 8.1
2014-Jul-22 03:33N 57°34' E 010°52'6 6.5
2014-Jul-22 02:33N 57°37' E 011°02'2 2.2
2014-Jul-22 01:33N 57°39' E 011°05'3 2.5
2014-Jul-22 00:33N 57°41' E 011°06'3 2.5
2014-Jul-21 23:33N 57°43' E 011°04'1 0.7
2014-Jul-21 22:34N 57°44' E 011°02'2 2.3
2014-Jul-21 21:33N 57°42' E 011°06'3 2.5
2014-Jul-21 20:33N 57°40' E 011°06'1 2.5
2014-Jul-21 20:18N 57°39' E 011°05'2 3.0
2014-Jul-21 19:33N 57°37' E 011°03'7 7.3
2014-Jul-21 18:32N 57°34' E 010°51'8 7.8
2014-Jul-21 17:33N 57°31' E 010°37'4 3.5
2014-Jul-21 16:24N 57°30' E 010°30'0 0.0
2014-Jul-21 15:33N 57°30' E 010°30'0 0.0
2014-Jul-21 14:31N 57°30' E 010°30'0 0.0
2014-Jul-21 13:24N 57°30' E 010°30'0 0.0
2014-Jul-21 12:32N 57°30' E 010°30'0 0.0
2014-Jul-21 11:33N 57°30' E 010°30'0 0.0
2014-Jul-21 10:33N 57°30' E 010°30'0 0.0
2014-Jul-21 09:33N 57°30' E 010°30'0 0.0
2014-Jul-21 08:33N 57°30' E 010°30'0 0.0
2014-Jul-21 07:31N 57°30' E 010°30'0 0.0
2014-Jul-21 06:33N 57°30' E 010°30'1 0.9
2014-Jul-21 05:27N 57°30' E 010°32'1 1.6
2014-Jul-21 04:32N 57°30' E 010°35'7 7.2
2014-Jul-21 03:31N 57°30' E 010°48'3 3.3
2014-Jul-21 02:32N 57°30' E 010°54'2 2.5
2014-Jul-21 01:33N 57°32' E 010°57'2 2.5
2014-Jul-21 00:33N 57°34' E 010°60'3 2.6
2014-Jul-20 23:33N 57°35' E 011°03'2 1.7
2014-Jul-20 22:34N 57°34' E 011°02'3 2.5
2014-Jul-20 21:34N 57°32' E 010°59'3 2.5
2014-Jul-20 20:34N 57°30' E 010°55'3 3.0
2014-Jul-20 19:33N 57°29' E 010°50'9 7.7
2014-Jul-20 18:26N 57°29' E 010°34'2 2.2
2014-Jul-20 17:32N 57°30' E 010°30'0 0.0
2014-Jul-20 16:33N 57°30' E 010°30'0 0.0
2014-Jul-20 15:33N 57°30' E 010°30'0 0.0
2014-Jul-20 14:33N 57°30' E 010°30'0 0.0
2014-Jul-20 13:33N 57°30' E 010°30'0 0.0
2014-Jul-20 12:33N 57°30' E 010°30'0 0.0
2014-Jul-20 11:33N 57°30' E 010°30'0 0.0
2014-Jul-20 10:32N 57°30' E 010°30'0 0.0
2014-Jul-20 07:11N 57°30' E 010°30'0 0.0
2014-Jul-20 06:21N 57°30' E 010°30'0 0.0
2014-Jul-20 05:28N 57°30' E 010°30'0 0.0
2014-Jul-20 04:07N 57°30' E 010°30'0 0.0
2014-Jul-20 03:33N 57°30' E 010°30'0 0.0
2014-Jul-20 02:33N 57°30' E 010°30'0 0.0
2014-Jul-20 01:32N 57°30' E 010°30'0 0.0
2014-Jul-20 00:33N 57°30' E 010°30'0 0.0
2014-Jul-19 23:34N 57°30' E 010°30'0 0.0
2014-Jul-19 22:33N 57°30' E 010°30'0 0.0
2014-Jul-19 21:33N 57°30' E 010°30'0 0.0
2014-Jul-19 20:33N 57°30' E 010°30'0 0.0
2014-Jul-19 19:30N 57°30' E 010°30'0 0.0
2014-Jul-19 18:31N 57°30' E 010°30'0 0.0
2014-Jul-19 17:08N 57°30' E 010°30'0 0.0
2014-Jul-19 14:07N 57°30' E 010°30'0 0.0
2014-Jul-19 13:33N 57°30' E 010°30'0 0.0
2014-Jul-19 12:33N 57°30' E 010°30'0 0.0
2014-Jul-19 11:28N 57°30' E 010°30'0 0.0
2014-Jul-19 10:27N 57°30' E 010°30'0 0.0
2014-Jul-19 01:33N 57°30' E 010°30'0 0.0
2014-Jul-18 20:29N 57°30' E 010°30'2 0.1
2014-Jul-18 04:27N 57°30' E 010°33'4 2.2
2014-Jul-18 02:31N 57°28' E 010°41'5 2.4
2014-Jul-18 00:28N 57°24' E 010°44'3 2.5
2014-Jul-17 23:11N 57°21' E 010°45'12 0.7
2014-Jul-17 07:22N 57°30' E 010°30'0 0.0
2014-Jul-17 06:33N 57°30' E 010°30'0 0.0
2014-Jul-17 05:31N 57°30' E 010°30'5 1.8
2014-Jul-17 02:33N 57°29' E 010°40'5 0.5
2014-Jul-16 16:31N 57°30' E 010°30'0 0.0
2014-Jul-16 15:31N 57°30' E 010°30'0 0.0
2014-Jul-15 08:20N 57°30' E 010°30'7 0.9
2014-Jul-15 01:08N 57°30' E 010°42'2 2.6
2014-Jul-15 00:11N 57°32' E 010°42'2 2.5
2014-Jul-14 23:33N 57°34' E 010°41'0 0.2
2014-Jul-14 22:33N 57°34' E 010°41'3 2.6
2014-Jul-14 21:33N 57°31' E 010°42'3 2.5
2014-Jul-14 20:33N 57°29' E 010°42'3 2.6
2014-Jul-14 19:33N 57°26' E 010°42'6 5.5
2014-Jul-14 18:33N 57°29' E 010°34'2 0.7
2014-Jul-14 15:29N 57°30' E 010°30'0 0.0
2014-Jul-14 14:24N 57°30' E 010°30'0 0.0
2014-Jul-14 13:09N 57°30' E 010°30'0 0.0
2014-Jul-14 12:20N 57°30' E 010°30'0 0.0
2014-Jul-14 11:30N 57°30' E 010°30'0 0.0
2014-Jul-14 10:18N 57°30' E 010°30'0 0.0
2014-Jul-14 09:21N 57°30' E 010°30'0 0.0
2014-Jul-14 08:33N 57°30' E 010°30'0 0.0
2014-Jul-14 07:33N 57°30' E 010°30'0 0.0
2014-Jul-14 06:31N 57°30' E 010°30'0 0.0
2014-Jul-14 05:33N 57°30' E 010°30'0 0.0
2014-Jul-14 04:32N 57°30' E 010°30'0 0.0
2014-Jul-14 03:26N 57°30' E 010°30'0 0.0
2014-Jul-14 02:32N 57°30' E 010°30'0 0.0
2014-Jul-14 01:29N 57°30' E 010°30'0 0.0
2014-Jul-14 00:30N 57°30' E 010°30'0 0.0
2014-Jul-13 23:33N 57°30' E 010°30'0 0.0
2014-Jul-13 22:30N 57°30' E 010°30'0 0.0
2014-Jul-13 21:26N 57°30' E 010°30'0 0.0
2014-Jul-13 20:33N 57°30' E 010°30'0 0.0
2014-Jul-13 18:30N 57°30' E 010°30'0 0.0
2014-Jul-13 17:30N 57°30' E 010°30'0 0.0
2014-Jul-13 16:33N 57°30' E 010°30'0 0.0
2014-Jul-13 14:33N 57°30' E 010°30'0 0.0
2014-Jul-13 13:27N 57°30' E 010°30'0 0.0
2014-Jul-13 12:30N 57°30' E 010°30'0 0.0
2014-Jul-13 11:33N 57°30' E 010°30'0 0.0
2014-Jul-13 10:26N 57°30' E 010°30'0 0.0
2014-Jul-13 09:31N 57°30' E 010°30'0 0.0
2014-Jul-13 08:23N 57°30' E 010°30'  
Track history (hours):
 
Tides and Currents Weather Stations Pressure Air Temp Water Temp Dewpoint Dewpoint Depression Visibility Wind Speed Wind Dir Waves Ship Positions

Jette Viking Hv77

Last reported at 2014-Jul-23 07:34 UTC. Time now 2014-Jul-23 07:54 UTC.
Position N 57°30' E 010°30'.

Length 16 m.

Type: Fishing. MMSI: 220046000.

Date/timePositionNaut miles runAvg speedWind from/ knotsBaromVisibWave heightAir tempDewpointWater temp
2014-Jul-23 07:34N 57°30' E 010°30'0 0.0
2014-Jul-23 06:33N 57°30' E 010°30'0 0.0
2014-Jul-23 05:27N 57°30' E 010°30'2 2.5
2014-Jul-23 04:33N 57°31' E 010°34'5 4.8
2014-Jul-23 03:33N 57°30' E 010°43'4 4.3
2014-Jul-23 02:33N 57°30' E 010°51'3 2.5
2014-Jul-23 01:33N 57°32' E 010°54'3 2.5
2014-Jul-23 00:33N 57°34' E 010°56'2 2.5
2014-Jul-22 23:33N 57°37' E 010°57'1 0.6
2014-Jul-22 22:32N 57°37' E 010°56'3 2.5
2014-Jul-22 21:31N 57°35' E 010°55'2 2.5
2014-Jul-22 20:33N 57°32' E 010°55'3 2.5
2014-Jul-22 19:33N 57°30' E 010°52'5 5.5
2014-Jul-22 18:33N 57°30' E 010°42'6 6.2
2014-Jul-22 17:34N 57°30' E 010°30'0 0.0
2014-Jul-22 16:33N 57°30' E 010°30'0 0.0
2014-Jul-22 15:34N 57°30' E 010°30'0 0.0
2014-Jul-22 14:33N 57°30' E 010°30'0 0.0
2014-Jul-22 13:33N 57°30' E 010°30'0 0.0
2014-Jul-22 12:34N 57°30' E 010°30'0 0.0
2014-Jul-22 11:33N 57°30' E 010°30'0 0.0
2014-Jul-22 10:33N 57°30' E 010°30'0 0.0
2014-Jul-22 09:33N 57°30' E 010°30'0 0.0
2014-Jul-22 08:33N 57°30' E 010°30'0 0.0
2014-Jul-22 07:34N 57°30' E 010°30'0 0.0
2014-Jul-22 06:33N 57°30' E 010°30'0 0.0
2014-Jul-22 05:33N 57°30' E 010°30'4 4.3
2014-Jul-22 04:33N 57°31' E 010°38'8 8.1
2014-Jul-22 03:33N 57°34' E 010°52'6 6.5
2014-Jul-22 02:33N 57°37' E 011°02'2 2.2
2014-Jul-22 01:33N 57°39' E 011°05'3 2.5
2014-Jul-22 00:33N 57°41' E 011°06'3 2.5
2014-Jul-21 23:33N 57°43' E 011°04'1 0.7
2014-Jul-21 22:34N 57°44' E 011°02'2 2.3
2014-Jul-21 21:33N 57°42' E 011°06'3 2.5
2014-Jul-21 20:33N 57°40' E 011°06'1 2.5
2014-Jul-21 20:18N 57°39' E 011°05'2 3.0
2014-Jul-21 19:33N 57°37' E 011°03'7 7.3
2014-Jul-21 18:32N 57°34' E 010°51'8 7.8
2014-Jul-21 17:33N 57°31' E 010°37'4 3.5
2014-Jul-21 16:24N 57°30' E 010°30'0 0.0
2014-Jul-21 15:33N 57°30' E 010°30'0 0.0
2014-Jul-21 14:31N 57°30' E 010°30'0 0.0
2014-Jul-21 13:24N 57°30' E 010°30'0 0.0
2014-Jul-21 12:32N 57°30' E 010°30'0 0.0
2014-Jul-21 11:33N 57°30' E 010°30'0 0.0
2014-Jul-21 10:33N 57°30' E 010°30'0 0.0
2014-Jul-21 09:33N 57°30' E 010°30'0 0.0
2014-Jul-21 08:33N 57°30' E 010°30'0 0.0
2014-Jul-21 07:31N 57°30' E 010°30'0 0.0
2014-Jul-21 06:33N 57°30' E 010°30'1 0.9
2014-Jul-21 05:27N 57°30' E 010°32'1 1.6
2014-Jul-21 04:32N 57°30' E 010°35'7 7.2
2014-Jul-21 03:31N 57°30' E 010°48'3 3.3
2014-Jul-21 02:32N 57°30' E 010°54'2 2.5
2014-Jul-21 01:33N 57°32' E 010°57'2 2.5
2014-Jul-21 00:33N 57°34' E 010°60'3 2.6
2014-Jul-20 23:33N 57°35' E 011°03'2 1.7
2014-Jul-20 22:34N 57°34' E 011°02'3 2.5
2014-Jul-20 21:34N 57°32' E 010°59'3 2.5
2014-Jul-20 20:34N 57°30' E 010°55'3 3.0
2014-Jul-20 19:33N 57°29' E 010°50'9 7.7
2014-Jul-20 18:26N 57°29' E 010°34'2 2.2
2014-Jul-20 17:32N 57°30' E 010°30'0 0.0
2014-Jul-20 16:33N 57°30' E 010°30'0 0.0
2014-Jul-20 15:33N 57°30' E 010°30'0 0.0
2014-Jul-20 14:33N 57°30' E 010°30'0 0.0
2014-Jul-20 13:33N 57°30' E 010°30'0 0.0
2014-Jul-20 12:33N 57°30' E 010°30'0 0.0
2014-Jul-20 11:33N 57°30' E 010°30'0 0.0
2014-Jul-20 10:32N 57°30' E 010°30'0 0.0
2014-Jul-20 07:11N 57°30' E 010°30'0 0.0
2014-Jul-20 06:21N 57°30' E 010°30'0 0.0
2014-Jul-20 05:28N 57°30' E 010°30'0 0.0
2014-Jul-20 04:07N 57°30' E 010°30'0 0.0
2014-Jul-20 03:33N 57°30' E 010°30'0 0.0
2014-Jul-20 02:33N 57°30' E 010°30'0 0.0
2014-Jul-20 01:32N 57°30' E 010°30'0 0.0
2014-Jul-20 00:33N 57°30' E 010°30'0 0.0
2014-Jul-19 23:34N 57°30' E 010°30'0 0.0
2014-Jul-19 22:33N 57°30' E 010°30'0 0.0
2014-Jul-19 21:33N 57°30' E 010°30'0 0.0
2014-Jul-19 20:33N 57°30' E 010°30'0 0.0
2014-Jul-19 19:30N 57°30' E 010°30'0 0.0
2014-Jul-19 18:31N 57°30' E 010°30'0 0.0
2014-Jul-19 17:08N 57°30' E 010°30'0 0.0
2014-Jul-19 14:07N 57°30' E 010°30'0 0.0
2014-Jul-19 13:33N 57°30' E 010°30'0 0.0
2014-Jul-19 12:33N 57°30' E 010°30'0 0.0
2014-Jul-19 11:28N 57°30' E 010°30'0 0.0
2014-Jul-19 10:27N 57°30' E 010°30'0 0.0
2014-Jul-19 01:33N 57°30' E 010°30'0 0.0
2014-Jul-18 20:29N 57°30' E 010°30'2 0.1
2014-Jul-18 04:27N 57°30' E 010°33'4 2.2
2014-Jul-18 02:31N 57°28' E 010°41'5 2.4
2014-Jul-18 00:28N 57°24' E 010°44'3 2.5
2014-Jul-17 23:11N 57°21' E 010°45'12 0.7
2014-Jul-17 07:22N 57°30' E 010°30'0 0.0
2014-Jul-17 06:33N 57°30' E 010°30'0 0.0
2014-Jul-17 05:31N 57°30' E 010°30'5 1.8
2014-Jul-17 02:33N 57°29' E 010°40'5 0.5
2014-Jul-16 16:31N 57°30' E 010°30'0 0.0
2014-Jul-16 15:31N 57°30' E 010°30'0 0.0
2014-Jul-15 08:20N 57°30' E 010°30'7 0.9
2014-Jul-15 01:08N 57°30' E 010°42'2 2.6
2014-Jul-15 00:11N 57°32' E 010°42'2 2.5
2014-Jul-14 23:33N 57°34' E 010°41'0 0.2
2014-Jul-14 22:33N 57°34' E 010°41'3 2.6
2014-Jul-14 21:33N 57°31' E 010°42'3 2.5
2014-Jul-14 20:33N 57°29' E 010°42'3 2.6
2014-Jul-14 19:33N 57°26' E 010°42'6 5.5
2014-Jul-14 18:33N 57°29' E 010°34'2 0.7
2014-Jul-14 15:29N 57°30' E 010°30'0 0.0
2014-Jul-14 14:24N 57°30' E 010°30'0 0.0
2014-Jul-14 13:09N 57°30' E 010°30'0 0.0
2014-Jul-14 12:20N 57°30' E 010°30'0 0.0
2014-Jul-14 11:30N 57°30' E 010°30'0 0.0
2014-Jul-14 10:18N 57°30' E 010°30'0 0.0
2014-Jul-14 09:21N 57°30' E 010°30'0 0.0
2014-Jul-14 08:33N 57°30' E 010°30'0 0.0
2014-Jul-14 07:33N 57°30' E 010°30'0 0.0
2014-Jul-14 06:31N 57°30' E 010°30'0 0.0
2014-Jul-14 05:33N 57°30' E 010°30'0 0.0
2014-Jul-14 04:32N 57°30' E 010°30'0 0.0
2014-Jul-14 03:26N 57°30' E 010°30'0 0.0
2014-Jul-14 02:32N 57°30' E 010°30'0 0.0
2014-Jul-14 01:29N 57°30' E 010°30'0 0.0
2014-Jul-14 00:30N 57°30' E 010°30'0 0.0
2014-Jul-13 23:33N 57°30' E 010°30'0 0.0
2014-Jul-13 22:30N 57°30' E 010°30'0 0.0
2014-Jul-13 21:26N 57°30' E 010°30'0 0.0
2014-Jul-13 20:33N 57°30' E 010°30'0 0.0
2014-Jul-13 18:30N 57°30' E 010°30'0 0.0
2014-Jul-13 17:30N 57°30' E 010°30'0 0.0
2014-Jul-13 16:33N 57°30' E 010°30'0 0.0
2014-Jul-13 14:33N 57°30' E 010°30'0 0.0
2014-Jul-13 13:27N 57°30' E 010°30'0 0.0
2014-Jul-13 12:30N 57°30' E 010°30'0 0.0
2014-Jul-13 11:33N 57°30' E 010°30'0 0.0
2014-Jul-13 10:26N 57°30' E 010°30'0 0.0
2014-Jul-13 09:31N 57°30' E 010°30'0 0.0
2014-Jul-13 08:23N 57°30' E 010°30'  

Dump ship's entire track history